| time (UTC) | temp C | wind direction | speed KPH | gust KPH | rain 1hr cm | rain 24hr cm | rain mn cm | humidity % | barometer mb |
| 20260902101505 | 22 | 300 | 0.0 | 3.2 | 0.00 | 0.00 | 0.00 | 58 | 1021.0 |
| 20260902100001 | 21 | 300 | 0.0 | 3.2 | 0.00 | 0.00 | 0.00 | 61 | 1021.1 |
| 20260902094558 | 20 | 300 | 0.0 | 3.2 | 0.00 | 0.00 | 0.00 | 64 | 1021.4 |
| 20260902093053 | 19 | 336 | 0.0 | 1.6 | 0.00 | 0.00 | 0.00 | 66 | 1021.4 |
| 20260902091551 | 18 | 340 | 0.0 | 1.6 | 0.00 | 0.00 | 0.00 | 68 | 1021.3 |
| 20260902090048 | 18 | 341 | 0.0 | 1.6 | 0.00 | 0.00 | 0.00 | 69 | 1021.3 |
| 20260902084547 | 18 | 341 | 0.0 | 1.6 | 0.00 | 0.00 | 0.00 | 71 | 1021.4 |
| 20260902083041 | 17 | 341 | 0.0 | 0.0 | 0.00 | 0.00 | 0.00 | 75 | 1021.3 |
| 20260902081537 | 16 | 341 | 0.0 | 0.0 | 0.00 | 0.00 | 0.00 | 76 | 1021.4 |
| 20260902080038 | 16 | 341 | 0.0 | 0.0 | 0.00 | 0.00 | 0.00 | 77 | 1021.3 |
| 20260902074544 | 15 | 341 | 0.0 | 0.0 | 0.00 | 0.00 | 0.00 | 78 | 1021.1 |
| 20260902073031 | 15 | 341 | 0.0 | 0.0 | 0.00 | 0.00 | 0.00 | 79 | 1021.4 |
| 20260902071529 | 15 | 341 | 0.0 | 0.0 | 0.00 | 0.00 | 0.00 | 81 | 1021.3 |
| 20260902070026 | 14 | 342 | 0.0 | 0.0 | 0.00 | 0.00 | 0.00 | 82 | 1021.3 |
| 20260902064527 | 13 | 342 | 0.0 | 0.0 | 0.00 | 0.00 | 0.00 | 84 | 1021.2 |
| 20260902063048 | 13 | 342 | 0.0 | 0.0 | 0.00 | 0.00 | 0.00 | 85 | 1021.3 |
| 20260902061528 | 13 | 342 | 0.0 | 0.0 | 0.00 | 0.00 | 0.00 | 86 | 1021.3 |
| 20260902060024 | 12 | 342 | 0.0 | 0.0 | 0.00 | 0.00 | 0.00 | 86 | 1021.5 |
| 20260902054523 | 12 | 342 | 0.0 | 0.0 | 0.00 | 0.00 | 0.00 | 87 | 1021.4 |
| 20260902053022 | 11 | 342 | 0.0 | 0.0 | 0.00 | 0.00 | 0.00 | 89 | 1021.3 |
| 20260902051535 | 11 | 342 | 0.0 | 0.0 | 0.00 | 0.00 | 0.00 | 90 | 1021.3 |
| 20260902050029 | 11 | 342 | 0.0 | 0.0 | 0.00 | 0.00 | 0.00 | 90 | 1021.3 |
| 20260902044523 | 11 | 342 | 0.0 | 0.0 | 0.00 | 0.00 | 0.00 | 90 | 1021.1 |
| 20260902043021 | 11 | 342 | 0.0 | 0.0 | 0.00 | 0.00 | 0.00 | 90 | 1021.2 |
| 20260902041539 | 11 | 342 | 0.0 | 0.0 | 0.00 | 0.00 | 0.00 | 89 | 1021.2 |
| 20260902040025 | 11 | 342 | 0.0 | 0.0 | 0.00 | 0.00 | 0.00 | 89 | 1021.0 |
| 20260902034518 | 11 | 342 | 0.0 | 0.0 | 0.00 | 0.00 | 0.00 | 88 | 1021.1 |
| 20260902033017 | 11 | 342 | 0.0 | 0.0 | 0.00 | 0.00 | 0.00 | 88 | 1021.0 |
| 20260902031514 | 11 | 342 | 0.0 | 0.0 | 0.00 | 0.00 | 0.00 | 88 | 1021.1 |
| 20260902030013 | 12 | 342 | 0.0 | 0.0 | 0.00 | 0.00 | 0.00 | 87 | 1021.0 |
| 20260902024512 | 12 | 342 | 0.0 | 0.0 | 0.00 | 0.00 | 0.00 | 87 | 1021.1 |
| 20260902023011 | 12 | 342 | 0.0 | 0.0 | 0.00 | 0.00 | 0.00 | 87 | 1021.2 |
| 20260902021510 | 12 | 342 | 0.0 | 1.6 | 0.00 | 0.00 | 0.00 | 87 | 1021.1 |
| 20260902020011 | 12 | 342 | 0.0 | 0.0 | 0.00 | 0.00 | 0.00 | 87 | 1021.1 |
| 20260902014518 | 12 | 341 | 0.0 | 0.0 | 0.00 | 0.00 | 0.00 | 87 | 1021.2 |
| 20260902013011 | 12 | 341 | 0.0 | 0.0 | 0.00 | 0.00 | 0.00 | 88 | 1021.2 |
| 20260902011512 | 12 | 341 | 0.0 | 0.0 | 0.00 | 0.00 | 0.00 | 87 | 1021.2 |
| 20260902010006 | 12 | 341 | 0.0 | 0.0 | 0.00 | 0.00 | 0.00 | 87 | 1021.3 |
| 20260902004504 | 12 | 341 | 0.0 | 0.0 | 0.00 | 0.00 | 0.00 | 85 | 1021.3 |
| 20260902003003 | 13 | 341 | 0.0 | 0.0 | 0.00 | 0.00 | 0.00 | 84 | 1021.4 |
| 20260902001600 | 13 | 341 | 0.0 | 0.0 | 0.00 | 0.00 | 0.00 | 84 | 1021.5 |
| 20260902000100 | 13 | 341 | 0.0 | 0.0 | 0.00 | 0.00 | 0.00 | 83 | 1021.6 |
| 20260901234556 | 13 | 341 | 0.0 | 1.6 | 0.00 | 0.00 | 0.00 | 82 | 1021.5 |
| 20260901233056 | 13 | 336 | 0.0 | 1.6 | 0.00 | 0.00 | 0.00 | 81 | 1021.5 |
| 20260901231600 | 13 | 300 | 0.0 | 0.0 | 0.00 | 0.00 | 0.00 | 81 | 1021.6 |
| 20260901230054 | 14 | 299 | 0.0 | 0.0 | 0.00 | 0.00 | 0.00 | 81 | 1021.6 |
| 20260901224553 | 14 | 300 | 0.0 | 1.6 | 0.00 | 0.00 | 0.00 | 81 | 1021.6 |
| 20260901223052 | 13 | 298 | 0.0 | 1.6 | 0.00 | 0.00 | 0.00 | 83 | 1021.7 |
| 20260901221550 | 13 | 298 | 0.0 | 0.0 | 0.00 | 0.00 | 0.00 | 83 | 1021.7 |
| 20260901220049 | 13 | 298 | 0.0 | 0.0 | 0.00 | 0.00 | 0.00 | 83 | 1021.6 |
| 20260901214549 | 14 | 298 | 0.0 | 0.0 | 0.00 | 0.00 | 0.00 | 82 | 1021.6 |
| 20260901213048 | 14 | 298 | 0.0 | 0.0 | 0.00 | 0.00 | 0.00 | 81 | 1021.6 |
| 20260901211548 | 15 | 298 | 0.0 | 0.0 | 0.00 | 0.00 | 0.00 | 80 | 1021.6 |
| 20260901204547 | 15 | 298 | 0.0 | 0.0 | 0.00 | 0.00 | 0.00 | 77 | 1021.5 |
| 20260901203046 | 15 | 298 | 0.0 | 0.0 | 0.00 | 0.00 | 0.00 | 77 | 1021.5 |
| 20260901201546 | 16 | 298 | 0.0 | 1.6 | 0.00 | 0.00 | 0.00 | 76 | 1021.4 |
| 20260901200045 | 16 | 298 | 0.0 | 0.0 | 0.00 | 0.00 | 0.00 | 74 | 1021.5 |
| 20260901194546 | 16 | 298 | 0.0 | 0.0 | 0.00 | 0.00 | 0.00 | 74 | 1021.5 |
| 20260901193044 | 17 | 298 | 0.0 | 0.0 | 0.00 | 0.00 | 0.00 | 72 | 1021.4 |
| 20260901191545 | 17 | 298 | 0.0 | 0.0 | 0.00 | 0.00 | 0.00 | 70 | 1021.3 |
| 20260901190105 | 18 | 298 | 0.0 | 0.0 | 0.00 | 0.00 | 0.00 | 69 | 1021.2 |
| 20260901184544 | 18 | 298 | 0.0 | 0.0 | 0.00 | 0.00 | 0.00 | 67 | 1021.0 |
| 20260901183044 | 19 | 298 | 0.0 | 0.0 | 0.00 | 0.00 | 0.00 | 62 | 1020.8 |
| 20260901181544 | 20 | 298 | 0.0 | 0.0 | 0.00 | 0.00 | 0.00 | 59 | 1020.7 |
| 20260901180043 | 20 | 298 | 0.0 | 0.0 | 0.00 | 0.00 | 0.00 | 57 | 1020.4 |
| 20260901174550 | 21 | 298 | 0.0 | 0.0 | 0.00 | 0.00 | 0.00 | 55 | 1020.4 |
| 20260901173041 | 21 | 298 | 0.0 | 1.6 | 0.00 | 0.00 | 0.00 | 54 | 1020.3 |
| 20260901171545 | 21 | 298 | 0.0 | 1.6 | 0.00 | 0.00 | 0.00 | 53 | 1020.3 |
| 20260901170041 | 22 | 298 | 0.0 | 1.6 | 0.00 | 0.00 | 0.00 | 52 | 1020.3 |
| 20260901164545 | 22 | 298 | 0.0 | 1.6 | 0.00 | 0.00 | 0.00 | 48 | 1020.4 |
| 20260901163101 | 22 | 298 | 0.0 | 4.8 | 0.00 | 0.00 | 0.00 | 48 | 1020.5 |
| 20260901161539 | 22 | 311 | 0.0 | 6.4 | 0.00 | 0.00 | 0.00 | 48 | 1020.5 |
| 20260901160040 | 22 | 275 | 0.0 | 4.8 | 0.00 | 0.00 | 0.00 | 48 | 1020.4 |
| 20260901154550 | 23 | 291 | 0.0 | 3.2 | 0.00 | 0.00 | 0.00 | 46 | 1020.5 |
| 20260901153041 | 23 | 267 | 0.0 | 3.2 | 0.00 | 0.00 | 0.00 | 47 | 1020.4 |
| 20260901151538 | 23 | 242 | 0.0 | 6.4 | 0.00 | 0.00 | 0.00 | 48 | 1020.3 |
| 20260901150037 | 23 | 268 | 0.0 | 6.4 | 0.00 | 0.00 | 0.00 | 45 | 1020.4 |
| 20260901144536 | 25 | 294 | 0.0 | 6.4 | 0.00 | 0.00 | 0.00 | 43 | 1020.4 |
| 20260901143035 | 24 | 254 | 0.0 | 4.8 | 0.00 | 0.00 | 0.00 | 44 | 1020.5 |
| 20260901141534 | 23 | 240 | 0.0 | 4.8 | 0.00 | 0.00 | 0.00 | 49 | 1020.5 |
| 20260901140033 | 23 | 244 | 0.0 | 8.0 | 0.00 | 0.00 | 0.00 | 46 | 1020.6 |
| 20260901134533 | 24 | 103 | 0.0 | 6.4 | 0.00 | 0.00 | 0.00 | 47 | 1020.6 |
| 20260901133033 | 24 | 273 | 0.0 | 8.0 | 0.00 | 0.00 | 0.00 | 45 | 1020.7 |
| 20260901131529 | 23 | 272 | 0.0 | 8.0 | 0.00 | 0.00 | 0.00 | 46 | 1020.8 |
| 20260901130029 | 23 | 292 | 0.0 | 4.8 | 0.00 | 0.00 | 0.00 | 49 | 1020.9 |
| 20260901124529 | 23 | 213 | 0.0 | 6.4 | 0.00 | 0.00 | 0.00 | 47 | 1021.0 |
| 20260901123027 | 23 | 340 | 1.6 | 6.4 | 0.00 | 0.00 | 0.00 | 49 | 1021.1 |
| 20260901121535 | 23 | 261 | 0.0 | 6.4 | 0.00 | 0.00 | 0.00 | 51 | 1021.1 |
| 20260901120025 | 23 | 276 | 0.0 | 9.7 | 0.00 | 0.00 | 0.00 | 53 | 1021.1 |
| 20260901114525 | 23 | 296 | 0.0 | 14.5 | 0.00 | 0.00 | 0.00 | 51 | 1021.3 |
| 20260901113021 | 23 | 287 | 0.0 | 9.7 | 0.00 | 0.00 | 0.00 | 53 | 1021.4 |
| 20260901111520 | 22 | 294 | 0.0 | 8.0 | 0.00 | 0.00 | 0.00 | 55 | 1021.4 |
| 20260901110019 | 22 | 261 | 0.0 | 9.7 | 0.00 | 0.00 | 0.00 | 55 | 1021.4 |
| 20260901104531 | 22 | 186 | 1.6 | 6.4 | 0.00 | 0.00 | 0.00 | 56 | 1021.5 |
| 20260901103020 | 22 | 290 | 1.6 | 9.7 | 0.00 | 0.00 | 0.00 | 58 | 1021.5 |